Regional Weather Roundup
Issued by NWS

Home | Current Version | Previous Version | Text Only | Print | Product List | Glossary Off
Versions: 1 2 3 4 5 6 7 8 9 10 11 12 13 14 15 16 17 18 19 20 21 22 23 24 25 26 27 28 29 30 31 32 33 34 35 36 37 38 39 40 41 42 43 44 45 46 47 48 49 50

038
ASUS43 KTOP 132008
RWRKS

WEATHER ROUNDUP FOR KANSAS
NATIONAL WEATHER SERVICE GOODLAND KS
200 PM CST SAT FEB 13 2016

NOTE:  "FAIR" INDICATES FEW OR NO CLOUDS BELOW 12,000 FEET WITH NO
SIGNIFICANT WEATHER AND/OR OBSTRUCTIONS TO VISIBILITY.

KSZ001>006-013>018-027>032-041>047-132100-
NORTHWEST KANSAS

CITY           SKY/WX    TMP DP  RH WIND       PRES   REMARKS
GOODLAND       CLOUDY    28  28 100 S14       30.05F FOG     WCI  17
HAYS           CLOUDY    34  12  40 S16G22    30.20F WCI  23
HILL CITY      CLOUDY    32  20  61 S12       30.18F WCI  23
RUSSELL        MOSUNNY   33  13  43 SE16G25   30.19F WCI  23
$$

KSZ061>065-074>080-084>089-132100-
SOUTHWEST KANSAS

CITY           SKY/WX    TMP DP  RH WIND       PRES   REMARKS
DODGE CITY     CLOUDY    38  21  50 S18       30.14F WCI  28
ELKHART          N/A     68  32  26 S16         N/A
GARDEN CITY    CLOUDY    45  28  51 S21       30.07F
GREAT BEND     CLOUDY    37  12  35 S17G25    30.20F WCI  28
LIBERAL        SUNNY     55  37  50 S17G26    30.05F
PRATT          CLOUDY    36  14  41 SE14      30.20F WCI  27
$$

KSZ066>073-081>083-090>101-132100-
SOUTHEAST KANSAS

CITY           SKY/WX    TMP DP  RH WIND       PRES   REMARKS
CHANUTE        MOSUNNY   38   2  22 SE12      30.37F WCI  30
COFFEYVILLE    CLOUDY    41   5  22 E9        30.37F
HUTCHINSON     CLOUDY    37   6  27 SE10G21   30.26F WCI  30
MEDICINE LODGE   N/A     41  16  36 S14G22    30.21F
NEWTON         PTSUNNY   37   3  23 SE16      30.29F WCI  28
PARSONS        SUNNY     39   3  22 VRB6      30.37F
WICHITA INTL   CLOUDY    40   4  22 SE13      30.26F WCI  32
WICHITA JABRA  CLOUDY    38   2  22 SE13      30.27F WCI  30
WICHITA MCCONL CLOUDY    39   4  22 E14       30.26F WCI  31
WINFIELD       CLOUDY    42   5  21 E15G22    30.28F
$$

KSZ007>012-019>026-033>040-048>060-102>105-132100-
NORTHEAST KANSAS

CITY           SKY/WX    TMP DP  RH WIND       PRES   REMARKS
CONCORDIA      CLOUDY    26   5  40 SE16      30.30F WCI  14
EMPORIA        MOSUNNY   32   1  26 E14       30.35F WCI  22
LAWRENCE       CLOUDY    23   2  40 E13       30.45F WCI  11
MANHATTAN      CLOUDY    29   3  33 SE14      30.37F WCI  18
MARYSVILLE     CLOUDY    23   3  42 SE13      30.36F WCI  11
OLATHE IND     CLOUDY    21   2  43 E12       30.44F WCI   9
OLATHE EXE     CLOUDY    20   1  43 E12       30.44F WCI   8
SALINA         CLOUDY    35   4  27 SE13      30.30F WCI  26
TOPEKA BILLARD CLOUDY    24   0  35 E13       30.43F WCI  12
TOPEKA FORBES  CLOUDY    25   3  38 E12       30.41F WCI  14
$$




USA.gov is the U.S. government's official web portal to all federal, state and local government web resources and services.